User: anonymous   Login
Location: Muenchen
(48.1800°N, 11.5800°E)
Time: 10:50:46
(UTC+01:00)
Language:

Iridium 37 - Orbit

View from above orbital plane
View from above orbital plane
View from above satellite
View from above satellite

Ground track
Ground track

The orbit data is extracted from the following two-line orbital elements,

1 24968U 97056D   16039.38119695  .00000296  00000-0  98630-4 0  9994
2 24968  86.4010 165.7110 0001977  97.2927 262.8493 14.34214957961618
Epoch (UTC): 08 February 2016 09:08:55
Eccentricity: 0.0001977
inclination: 86.4010°
perigee height: 776 km
apogee height: 779 km
right ascension of ascending node: 165.7110°
argument of perigee: 97.2927°
revolutions per day: 14.34214957
mean anomaly at epoch: 262.8493°
orbit number at epoch: 96161

The dashed part of the orbit path shows where the satellite is in the earth's shadow,  

DLR